Location: Sternwarte_Laufen
(47.9344°N, 12.9346°E)
Time: 22:40:30
(UTC+02:00)

ISS - Pass Details

Date: 18 July 2018
Orbit: 402 x 408 km, 51.6° (Epoch: 22 July)

Event Time Altitude Azimuth Distance (km) Brightness Sun altitude
Exits shadow 02:22:42 - 283° (WNW) 1,880 -0.5 -19.3°
Reaches altitude 10° 02:23:44 10° 288° (WNW) 1,469 -1.0 -19.3°
Maximum altitude 02:26:53 41° 0° (N) 606 -2.5 -19.1°
Drops below altitude 10° 02:30:03 10° 73° (ENE) 1,472 -0.5 -19.0°
Sets 02:32:12 0° 81° (E) 2,334 0.4 -18.8°
